Torna al catalogo

DELTA 1 DEB

AttivoSSO
NORAD 21497·DEBRIS·🇺🇸 United States

Lanciato Jun 12, 1975 da Vandenberg Space Force Base

Loading…

Prossimi Passaggi (prossime 24 ore)

TLE

AggiornatoSource: Space-Track

Epoca: Sep 14, 2026, 17:48 UTC

1 21497U 75052FS  26257.74207828  .00000010  00000-0  10824-3 0  9991
2 21497 100.0290 184.6944 0058997 151.7771 225.3652 13.32999372719932

Traccia DELTA 1 DEB in tempo reale con AllMySat

Download on the App Store